Weather in Litovko

Russia / Khabarovsk Krai     49°14′25″N   135°10′15″E
temp.,
°C
wind,
m/s
gust,
m/s
humid.,
%
clouds,
%
prec.,
mm/h
press.,
hPa
HPBL,
m
27 february, sat
sat2701:00−19sw11920 0.0 103321
04:00−21sw11930 0.0 103321
07:00−22ssw11930 0.0 103421
10:00−18ssw12913 0.0 1033128
13:00−12ssw248174 0.0 1031433
16:00−11ssw247987 0.0 1028456
19:00−14se1291100 0.0 102521
22:00−14nw1191100 0.0 102220
28 february, sun
sun2801:00−13ese0097100 0.5 101925
04:00−12w1396100 1.9 1016130
07:00−10wsw3891100 0.1 1016277
10:00−9wsw4118595 0.1 1016373
13:00−5w8126969 0.0 1017973
16:00−8w9146485 0.0 1018903
19:00−11w81669100 0.0 1021580
22:00−15w9177282 0.0 1023621
1 march, mon
mon101:00−17w1019680 0.0 1024545
04:00−19w916700 0.0 1026508
07:00−20w714732 0.0 1028471
10:00−18w815631 0.0 1029770
13:00−14w1015590 0.0 10291026
16:00−13w914620 0.0 10291428
19:00−16w714690 0.0 1030494
22:00−18w614740 0.0 1031408
2 march, tue
tue201:00−21wsw511770 0.0 1031237
04:00−21wsw714730 0.0 1032333
07:00−21w614690 0.0 1033381
10:00−20wnw510710 0.0 1032637
13:00−16w58650 0.0 1031811
16:00−14w68640 0.0 1030996
19:00−17w47740 0.0 1031115
22:00−21w23790 0.0 103222
3 march, wed
wed301:00−24wnw11890 0.0 103120
04:00−25ssw11870 0.0 103020
07:00−26sse11910 0.0 102920
10:00−22se11930 0.0 102874
13:00−16se238034 0.0 1025417
16:00−13sse237766 0.0 1021383
19:00−16sse1188100 0.0 101920
22:00−16wnw1186100 0.0 101820